GFSNGP_con_mlcape_273.txt.gz
CAPE
0 0 0 0 0 0 0 0 0 0 0 0 0 0 18 78 136 473 997 1065 1077 1055 1619 1376 850 359 194 238 345 378 327 237 100 20 11 1 0 0 0 35 36 3 0 0
0 0 0 0 0 0 0 0 0 0 0 0 0 0 2 83 257 495 943 1146 1442 1689 1651 1264 762 320 237 448 485 358 237 61 0 0 0 0 0 0 0 0 0 0 0 0
0 0 0 0 0 0 0 0 0 0 0 0 1 17 73 178 289 648 960 1282 1652 1790 1645 1379 800 570 529 616 456 317 164 29 0 0 0 0 0 0 0 0 0 0 0 0
0 0 0 0 0 0 0 0 0 0 0 0 29 139 147 274 352 603 1046 1419 1773 1783 1661 1437 817 758 711 599 421 258 109 5 0 0 0 0 0 0 0 0 0 0 0 0
0 0 0 0 0 0 0 0 0 0 0 20 123 96 164 263 512 638 1200 1532 1868 1661 1447 1056 665 874 706 642 521 278 48 2 0 0 0 0 0 0 0 0 0 0 0 0
1 10 0 0 1 25 1 0 0 0 0 96 258 151 247 287 667 830 1356 1720 1816 1517 1241 847 737 865 839 766 593 283 10 0 0 0 0 0 0 0 0 0 0 0 0 0
41 36 0 0 56 39 0 0 0 14 63 117 265 522 447 324 957 1460 1700 1757 1668 1496 1356 1064 893 1001 973 828 584 30 0 0 0 0 0 0 0 0 0 0 0 0 0 0
69 33 29 48 32 43 66 64 61 113 345 177 444 531 705 309 1116 1570 1805 1767 1712 1573 1440 1121 961 1058 903 795 49 0 0 0 0 0 0 0 0 0 0 0 0 0 0 0
186 218 120 149 109 93 51 103 133 83 388 484 346 488 887 458 1248 1582 1823 1794 1702 1538 1152 992 963 990 874 153 0 0 0 0 0 0 0 0 0 0 0 0 0 0 0 0
31 86 35 30 66 53 31 52 19 92 222 447 340 559 943 1141 1318 1504 1752 1729 1546 1149 1091 806 646 821 444 2 0 0 0 0 0 0 0 0 0 0 0 0 0 0 0 0
50 32 1 0 0 0 0 0 10 200 346 444 532 689 995 1255 1330 1339 1367 1142 1054 960 765 411 182 129 6 0 0 0 0 0 0 0 0 0 0 0 0 0 0 0 0 0
194 0 0 0 0 0 0 7 7 86 432 626 795 731 871 1028 1060 884 778 628 549 290 239 98 61 0 0 0 0 0 0 0 0 0 0 0 0 0 0 0 0 0 0 0
44 0 0 0 0 0 41 120 109 97 406 801 865 878 674 513 448 364 337 131 115 39 20 0 0 0 0 0 0 0 0 0 0 0 0 0 0 0 0 0 0 0 0 0
0 0 16 34 25 74 138 343 405 562 746 934 814 638 488 298 62 156 42 40 0 0 0 0 0 0 0 0 0 0 0 0 0 0 0 0 0 0 0 0 0 0 0 0
0 0 26 104 42 109 321 394 369 314 383 523 563 342 201 122 47 7 3 1 0 0 0 0 0 0 0 0 0 0 0 0 0 0 0 0 0 0 0 0 0 0 0 0
41 25 5 0 0 41 137 182 243 284 344 490 427 256 91 2 0 1 0 0 0 0 0 0 0 0 0 0 0 0 0 0 0 0 0 0 0 0 0 0 0 0 0 0
7 116 13 87 27 0 2 30 216 361 498 598 498 318 187 85 10 0 0 0 0 0 0 0 0 0 0 0 0 0 0 0 0 0 0 0 0 0 0 0 0 0 0 0
150 52 21 184 77 12 68 86 494 571 733 533 155 42 2 0 0 0 0 0 0 0 0 0 0 0 0 0 0 0 0 0 0 0 0 0 0 0 0 0 0 0 0 0
28 25 15 89 28 98 272 530 647 701 564 125 44 8 0 0 0 0 1 0 0 0 0 0 0 0 0 0 0 0 0 0 0 0 0 0 0 0 0 0 0 0 0 0
41 2 11 28 15 103 422 634 752 570 557 411 288 57 11 0 0 0 0 0 0 0 0 0 0 0 0 0 0 0 0 0 0 0 0 0 0 0 0 0 0 0 0 0
417 228 22 37 47 188 419 660 429 345 316 205 1 0 0 0 0 0 0 0 0 0 0 0 0 0 0 0 0 0 0 0 0 0 0 0 0 0 0 0 0 0 0 0
72 347 351 95 28 20 310 505 385 307 213 48 29 4 0 0 0 0 0 0 0 0 0 0 0 0 0 0 0 0 0 0 0 0 0 0 0 0 0 0 0 0 0 0
18 113 356 313 252 214 242 416 402 162 46 5 0 0 2 0 0 0 0 0 0 0 0 0 0 0 0 0 0 0 0 0 0 0 0 0 0 0 0 0 0 0 0 0
29 106 160 201 212 208 278 348 353 255 71 0 0 0 0 0 0 0 0 0 0 0 0 0 0 0 0 0 0 0 0 0 0 0 0 0 0 0 0 0 0 0 0 0
3 54 126 145 233 240 203 135 119 41 2 0 0 0 0 0 0 0 0 0 0 0 0 0 0 0 0 0 0 0 0 0 0 0 0 0 0 0 0 0 0 0 0 0
0 93 228 61 94 31 32 16 122 34 4 0 0 0 0 0 0 0 0 0 0 0 0 0 0 0 0 0 0 0 0 0 0 0 0 0 0 0 0 0 0 0 0 0
167 58 69 55 12 0 0 32 119 59 0 0 0 0 0 0 0 0 0 0 0 0 0 0 0 0 0 0 0 0 0 0 0 0 0 0 0 0 0 0 0 0 0 0

GFSNGP_con_mlcape_276.txt.gz
CAPE
0 0 0 0 0 0 0 0 0 6 0 0 1 79 263 611 988 1361 1600 1624 1657 1920 1901 2133 2004 1730 1331 1048 878 882 968 916 825 721 662 536 477 491 466 404 331 223 141 92
0 0 0 0 0 0 0 0 0 0 0 0 0 344 334 543 762 1262 1691 1717 1716 1781 2028 2017 1591 1190 930 891 908 881 826 704 578 498 351 191 100 70 75 110 151 51 5 0
0 0 0 0 0 0 0 0 0 0 0 0 0 52 519 632 709 1018 1596 1717 1783 1919 2028 1809 1339 972 875 878 864 892 776 609 510 475 348 103 3 1 0 0 0 0 0 0
0 0 0 0 0 0 0 0 0 0 0 0 13 277 488 696 697 990 1464 1794 2104 2191 2102 1806 1265 899 868 926 950 892 787 728 510 206 25 0 0 0 0 0 0 0 0 0
0 0 0 0 0 0 0 0 0 0 0 0 139 595 350 622 692 992 1473 1965 2344 2328 2149 1747 1344 1068 1001 946 908 873 769 535 331 130 9 0 0 0 0 0 0 0 0 0
150 33 16 1 63 254 110 0 99 27 26 136 274 84 457 911 725 940 1584 2099 2371 2320 2146 1669 1383 1104 1036 965 906 787 603 412 173 22 4 2 0 0 0 0 0 0 0 0
73 88 74 134 360 348 13 128 357 389 480 666 563 557 1080 1028 987 1133 1702 2267 2339 2170 1880 1460 1238 1072 1151 1081 900 776 579 286 56 7 1 0 0 0 0 0 0 0 0 0
251 175 120 215 270 306 568 621 616 596 608 813 972 773 949 1021 1271 1300 1820 2358 2211 1920 1634 1373 1279 1210 1232 1041 832 499 241 78 2 0 0 0 0 0 0 0 0 0 0 0
220 296 771 545 482 591 546 482 614 506 542 611 879 807 1027 1040 1533 1890 2127 2274 2116 1968 1773 1525 1404 1408 1269 677 319 152 45 0 0 0 0 0 0 0 0 0 0 0 1 0
499 51 263 570 512 470 465 446 302 281 499 661 871 848 978 1511 1462 2121 2432 2349 2246 2173 1969 1685 1602 1469 616 192 88 0 0 0 0 0 0 0 0 0 0 0 0 0 0 0
684 636 480 465 370 339 242 188 228 272 508 756 926 1060 1174 1534 1538 1885 2428 2494 2408 2007 1606 1487 1125 479 76 16 4 0 0 0 0 0 0 0 0 0 0 0 0 0 0 0
489 721 407 338 285 259 219 338 489 413 593 953 1051 1183 1357 1727 2023 1928 2077 2016 1661 804 655 402 191 150 22 1 0 0 0 0 0 0 0 0 0 0 0 0 0 0 0 0
281 302 378 236 133 213 243 483 648 609 692 941 1338 1410 1388 1589 1544 995 1013 757 423 374 232 24 3 1 1 0 0 0 0 0 0 0 0 0 0 0 0 0 0 0 0 0
14 14 67 189 326 340 458 713 657 902 964 1210 1418 1404 1353 1262 515 708 553 331 252 146 42 3 0 0 0 0 0 0 0 0 0 0 0 0 0 0 0 0 0 0 0 0
93 143 135 224 367 489 669 821 841 904 941 1222 1421 1402 1199 660 594 390 155 176 207 19 5 0 0 0 0 0 0 0 0 0 0 0 0 0 0 0 0 0 0 0 0 0
197 90 268 475 470 405 473 683 688 812 994 1153 1241 1121 1028 420 24 9 5 3 4 4 0 0 0 0 0 0 0 0 0 0 0 0 0 0 0 0 0 0 0 0 0 0
444 283 233 560 589 448 448 513 563 671 1160 1266 1257 1023 527 272 19 7 3 4 1 0 0 0 0 0 0 0 0 0 0 0 0 0 0 0 0 0 0 0 0 0 0 0
865 777 604 408 633 695 622 677 627 955 1263 1443 1243 985 716 580 441 120 1 0 0 0 0 0 0 0 0 0 0 0 0 0 0 0 0 0 0 0 0 0 0 0 0 0
619 713 745 600 557 685 775 1021 1117 1354 1542 1427 1069 864 757 575 229 9 1 0 0 0 0 0 0 0 0 0 0 0 0 0 0 0 0 0 0 0 0 0 0 0 0 0
963 551 492 548 669 682 1019 1335 1540 1575 1373 1040 803 742 600 384 6 1 0 0 0 0 0 0 0 0 0 0 0 0 0 0 0 0 0 0 0 0 0 0 0 2 1 1
819 1130 592 541 630 714 1126 1416 1577 1588 1299 1102 1102 831 445 0 0 0 3 1 0 0 0 0 0 0 0 0 0 0 0 0 0 0 0 0 0 0 0 0 0 0 0 1
585 772 1140 693 584 756 1138 1419 1567 1533 1432 1207 654 609 58 0 0 0 0 0 0 0 0 0 0 0 0 0 0 0 0 0 0 0 0 0 0 0 0 0 0 0 0 1
541 602 822 1184 845 608 725 1226 1246 1297 1183 730 386 117 0 0 0 0 0 0 0 0 0 0 0 0 0 0 0 0 0 0 0 0 0 0 0 0 0 0 0 0 3 0
485 677 745 907 1026 996 952 1083 1041 1118 1062 870 640 146 82 15 28 3 0 0 0 0 0 0 0 0 0 0 0 0 0 0 0 0 0 0 0 0 0 0 1 1 1 0
488 600 681 864 993 1133 1168 1190 1086 983 917 693 528 387 327 298 293 0 0 0 0 0 0 0 0 0 0 0 0 0 0 0 0 0 0 0 0 0 0 7 12 10 0 0
532 486 686 987 776 777 897 906 1028 1010 789 580 489 444 379 229 11 0 0 0 0 0 0 0 0 0 0 0 0 0 0 0 0 0 0 0 0 0 10 18 19 21 8 0
994 361 819 720 588 441 398 338 596 804 609 626 484 276 88 0 0 0 0 0 0 0 0 0 0 0 0 0 0 0 0 0 0 0 0 0 0 9 19 34 32 23 9 0

GFSNGP_con_mlcape_279.txt.gz
CAPE
0 0 0 0 0 0 0 7 33 82 12 19 10 37 316 753 1310 1343 1410 1291 1607 1984 1997 2517 2665 2639 2433 2036 1571 1355 1323 1359 1313 1130 1150 1028 905 681 576 458 354 245 112 74
0 0 0 0 0 0 0 0 0 10 0 9 12 37 76 425 986 1440 1597 1544 1524 2181 2258 2477 2507 2346 1881 1497 1306 1321 1406 1361 1344 1156 969 819 631 487 436 258 50 48 3 3
0 0 0 0 0 0 0 0 20 11 16 0 1 11 62 341 717 1148 1553 1748 1839 2302 2217 2241 2279 1848 1383 1241 1320 1342 1294 1168 1022 975 829 561 520 407 184 9 3 3 1 0
0 0 0 0 0 0 0 0 0 0 0 0 0 3 19 153 553 902 1431 1806 1998 2100 2092 2291 2055 1374 1027 1156 1201 1234 1205 1016 981 887 748 505 252 70 1 0 2 0 0 0
0 12 0 0 0 0 0 0 0 1 0 0 0 0 4 616 491 807 1134 1830 2039 2022 2194 2294 1740 1132 1056 1044 1146 1146 1038 1001 947 684 461 267 42 0 0 0 0 0 0 0
20 45 15 5 1 0 1 7 55 61 33 71 38 57 554 1181 1053 885 1141 1770 2105 2202 2375 2232 1561 1190 1099 1045 1068 1043 1050 773 615 531 330 155 3 0 0 0 0 0 0 0
2 23 62 187 321 83 0 371 651 617 753 850 709 1014 827 860 1104 955 1360 1781 2235 2398 2439 2062 1568 1362 1177 1077 981 1066 824 543 375 242 125 2 0 0 0 0 0 0 0 0
39 19 52 445 222 190 778 773 737 725 794 888 897 1047 982 1106 1161 1101 1596 1965 2387 2497 2239 1893 1586 1380 1219 1051 1010 828 677 446 261 86 0 0 0 0 0 0 0 0 0 0
237 287 16 4 27 586 601 659 702 567 584 790 869 1074 1007 1540 1237 1342 1773 2289 2494 2392 2035 1760 1447 1265 1377 1131 1046 584 425 291 108 0 0 0 0 0 0 0 0 0 4 1
59 100 26 51 102 444 425 443 425 341 429 656 876 1031 1157 1565 1449 1715 1924 2617 2461 2042 1844 1681 1514 1581 1401 966 569 501 329 113 7 0 0 0 0 0 0 0 0 0 0 0
396 62 127 297 569 511 437 348 451 488 461 620 851 993 1309 1482 1597 2060 2351 2454 2310 2051 1897 1696 1396 1152 638 401 297 255 20 0 0 0 0 0 0 0 0 0 0 0 0 0
216 637 703 814 426 358 382 454 573 617 669 703 1027 1120 1393 1672 1978 1916 2641 2533 2376 1961 1641 982 392 186 132 42 25 0 0 0 0 0 0 0 0 0 0 0 0 0 0 0
120 213 251 321 191 181 298 391 550 690 784 900 1008 1167 1470 1987 2433 2550 2887 2251 1799 1115 756 315 283 52 1 0 2 0 0 0 0 0 0 0 0 0 0 0 0 0 0 0
28 56 49 109 181 222 407 527 669 706 907 963 1166 1425 1493 1822 1706 1738 1455 1082 873 576 375 250 146 4 0 0 0 0 0 0 0 0 0 0 0 0 0 0 0 0 0 0
0 9 73 100 196 297 514 635 729 763 896 1024 1318 1593 1682 1852 1432 997 780 705 668 602 416 275 45 3 0 0 0 0 0 0 0 0 0 0 0 0 0 0 0 0 0 0
61 287 276 274 411 555 626 686 773 770 932 1146 1299 1614 1699 1440 678 484 537 590 681 464 119 3 6 1 0 0 0 0 0 0 0 0 0 0 0 0 0 0 0 0 0 0
450 350 270 264 377 688 720 655 642 734 823 1352 1559 1685 1235 591 340 116 193 153 8 3 4 0 0 0 0 0 0 0 0 0 0 0 0 0 0 0 0 0 0 0 0 0
1133 1064 927 552 547 810 764 692 735 841 972 1609 1819 1427 841 361 183 86 141 14 1 3 0 0 0 0 0 0 0 0 0 0 0 0 0 0 0 0 0 0 0 0 0 4
1080 1078 1102 1113 949 800 900 903 1115 1182 1708 2003 1669 1144 896 618 504 268 30 0 0 0 0 0 0 0 0 0 0 0 0 0 0 0 0 0 0 0 0 0 0 0 6 17
1164 1120 822 933 978 834 930 1219 1510 1904 2100 1834 1736 1407 1047 590 100 0 0 0 0 0 0 0 0 0 0 0 0 0 0 0 0 0 0 0 0 0 0 0 0 3 7 13
1018 1257 1244 884 852 942 1013 1388 1858 2076 2024 1712 1476 1257 941 472 19 0 0 0 0 0 0 0 0 0 0 0 0 0 0 0 0 0 0 0 0 0 0 1 1 7 9 18
1086 1098 1387 1169 894 1033 1083 1431 1868 2126 1963 1734 1579 1323 740 198 3 2 0 0 0 0 0 0 0 0 0 0 0 0 0 0 0 0 0 0 0 0 1 0 6 10 21 29
962 1102 1228 1516 1309 1003 1227 1552 1850 1995 1979 1833 1600 1292 569 111 2 0 1 1 0 0 0 0 0 0 0 0 0 0 0 0 0 0 0 0 0 0 0 4 9 29 34 25
913 998 1164 1214 1422 1460 1121 1214 1623 1798 1960 1613 1179 823 296 16 0 0 26 0 0 0 0 0 0 0 0 0 0 0 0 0 0 0 0 0 0 0 4 21 34 39 45 34
887 882 949 1110 1265 1463 1603 1463 1543 1701 1738 1272 925 467 168 150 269 256 42 0 0 0 0 0 0 0 0 0 0 0 0 0 0 0 0 0 0 0 10 30 33 43 47 42
999 831 852 1101 1337 1254 1319 1590 1601 1523 1583 1392 1232 735 395 465 547 224 0 0 0 0 0 0 0 0 0 0 0 0 0 0 0 0 0 0 0 10 27 37 51 46 53 39
1078 686 873 1059 914 939 925 1134 1437 1474 1354 1294 1150 920 783 761 263 1 0 0 0 0 0 0 0 0 0 0 0 0 0 0 0 0 0 0 5 25 41 52 61 65 58 35

GFSNGP_con_mlcape_285.txt.gz
CAPE
0 0 0 0 0 0 0 0 0 8 0 0 1 41 367 1036 1011 1085 1204 1296 1451 1682 2284 2468 2434 2459 2524 2557 2510 2395 2260 1877 1748 1835 1289 1127 970 770 564 363 158 2 0 0
0 0 0 0 0 0 0 0 0 0 0 0 0 0 3 948 1048 1188 1230 1253 1599 1956 2355 2607 2782 2909 2753 2638 2536 2368 2049 1883 1486 1186 1039 929 797 641 374 151 66 0 0 0
0 0 0 0 0 0 0 0 0 0 0 21 0 0 0 382 1153 1267 1417 1335 1731 2121 2255 2656 2794 2926 2809 2604 2228 1944 1567 1392 1176 1015 958 828 599 326 128 56 0 0 0 0
0 0 0 0 0 0 0 0 0 0 0 45 31 193 615 799 1166 1398 1467 1376 1585 2273 2342 2684 2929 2875 2487 2096 1737 1644 1441 1249 1106 916 722 565 317 162 70 5 0 0 0 0
0 0 0 0 386 433 309 0 156 44 0 31 294 352 667 804 735 1045 1470 1457 1412 2210 2278 2758 2907 2528 1976 1696 1643 1558 1340 1153 870 653 400 362 214 71 0 0 0 0 0 0
0 0 25 228 262 323 355 254 484 789 697 193 274 309 579 621 777 712 1457 1719 1551 2179 2357 2687 2606 2139 1706 1641 1655 1398 1158 968 820 489 398 232 68 0 0 0 0 0 0 0
5 0 282 126 402 532 324 602 95 87 633 792 696 792 859 1062 818 1010 1025 1900 1919 2221 2485 2527 2169 1729 1520 1577 1535 1281 1022 706 558 400 258 84 0 0 0 0 0 0 0 0
39 1 3 6 116 222 176 180 25 1 22 278 781 844 861 1109 923 1064 1385 1240 2211 2240 2367 2098 1734 1352 1317 1343 1303 1047 771 451 261 131 22 0 0 0 0 0 0 0 0 0
68 153 85 0 41 103 99 30 30 8 1 32 461 679 1191 1349 1233 1297 1695 2220 2250 2170 2233 1833 1385 1161 1092 1030 884 629 416 230 173 61 11 0 0 0 0 0 0 0 0 0
0 115 4 0 0 32 223 148 1 0 0 0 271 483 965 1091 1373 1444 1871 2374 2395 2296 2004 1338 1123 1073 654 671 527 375 229 186 51 0 0 0 0 0 0 0 0 0 0 0
0 0 0 0 1 36 70 86 350 97 318 473 441 518 741 948 1834 2072 2085 2629 2397 2178 1546 1332 1089 805 414 130 46 97 129 57 7 0 0 0 0 0 0 0 0 0 0 0
6 0 0 0 5 108 0 0 10 198 506 710 777 794 849 1940 2449 2696 2912 2669 2244 1849 1449 1132 822 619 383 18 0 0 60 1 0 0 0 0 0 0 0 0 0 0 0 0
24 8 0 31 210 271 7 151 95 106 349 751 803 906 910 2052 2572 2316 2153 2289 1777 1610 1280 1000 780 528 13 0 0 0 0 0 0 0 0 0 0 0 0 0 0 0 0 0
13 1 12 14 105 390 576 444 237 169 574 537 480 889 1177 1925 2002 1814 1532 1431 1489 1168 922 857 671 226 0 0 0 1 0 0 0 0 0 0 0 0 0 0 0 0 0 0
78 36 0 6 0 0 5 24 92 49 181 404 496 872 1729 1903 1625 1368 936 710 963 1001 906 744 369 186 33 12 0 11 0 0 0 0 0 0 0 0 0 0 0 0 0 0
51 107 68 79 103 63 36 45 107 287 301 362 1347 1560 1463 1436 1196 1060 831 699 889 916 737 555 347 131 26 7 5 0 0 0 0 0 0 0 0 0 0 0 0 0 0 0
121 119 231 269 328 247 106 53 43 295 483 1398 1497 854 340 492 737 639 615 707 617 518 424 342 211 70 17 0 0 0 0 0 0 0 0 0 0 0 0 0 0 0 0 0
350 424 347 315 541 603 386 396 472 543 1428 1575 1277 575 604 642 416 357 384 385 345 230 131 74 16 0 0 0 0 0 0 0 0 0 0 0 0 0 0 0 0 0 0 0
504 511 687 783 808 814 749 726 984 1734 557 1149 1415 1150 817 487 322 222 89 68 20 17 0 0 0 0 0 0 0 0 0 0 0 0 0 0 0 0 0 0 0 0 0 0
697 832 909 1001 949 817 954 815 974 1270 269 689 1029 757 521 298 126 7 0 0 0 0 0 0 0 0 0 0 0 0 0 0 0 0 0 0 0 0 0 0 0 0 0 3
783 868 1006 1124 969 595 854 721 1363 1989 1686 1523 1101 758 349 135 0 0 0 0 0 0 0 0 0 0 0 0 0 0 0 0 0 0 0 0 0 0 0 0 0 0 4 12
980 958 1031 1143 1288 792 624 695 1876 2003 1693 1419 1066 597 269 58 0 0 0 0 0 0 0 0 0 0 0 0 0 0 0 0 0 0 0 0 0 0 0 0 0 2 11 31
978 950 1016 1185 1199 1191 1121 1787 2044 2017 1846 1592 1270 850 450 107 0 0 0 0 0 0 0 0 0 0 0 0 0 0 0 0 0 0 0 0 0 0 0 0 0 12 19 15
958 886 852 967 1002 1160 1261 1100 2119 2011 1906 1657 1358 822 450 70 1 0 0 0 0 0 0 0 0 0 0 0 0 0 0 0 0 0 0 0 0 0 0 0 3 13 18 27
964 817 746 716 793 986 1141 1323 1590 1789 1770 1534 1237 764 277 79 9 0 0 0 0 0 0 0 0 0 0 0 0 0 0 0 0 0 0 0 0 0 0 1 4 28 13 28
948 780 814 973 971 1034 1023 1084 1298 1108 1419 1218 974 576 354 218 107 0 0 0 0 0 0 0 0 0 0 0 0 0 0 0 0 0 0 0 0 0 4 3 24 46 23 17
778 627 875 718 671 825 778 680 643 193 85 139 291 516 177 90 69 7 0 0 0 0 0 0 0 0 0 0 0 0 0 0 0 0 0 0 0 0 10 33 28 35 37 1

GFSNGP_con_mlcape_291.txt.gz
CAPE
0 0 0 0 0 0 0 0 0 0 0 0 0 5 8 0 2 7 103 218 560 710 750 871 976 1110 1296 1539 1710 1804 1784 1735 1604 1252 1066 931 767 591 399 306 136 1 0 0
0 0 0 0 0 0 0 0 0 0 0 0 0 0 1 0 31 85 232 302 694 943 1024 1186 1320 1465 1617 1731 1827 1802 1775 1624 1235 1121 961 765 653 467 324 168 6 0 0 0
0 0 0 0 7 113 132 44 41 0 0 0 0 0 5 0 0 105 441 483 861 1273 1317 1396 1550 1668 1660 1765 1791 1843 1748 1400 1120 1036 977 718 503 331 207 108 0 0 0 0
0 0 0 0 2 42 212 60 37 27 17 0 0 0 11 134 6 3 570 758 1006 1495 1576 1667 1783 1885 1869 1833 1807 1741 1606 1375 1146 1065 899 533 341 220 101 13 0 0 0 0
0 0 0 0 0 3 284 199 90 77 98 69 33 354 636 574 476 13 118 836 1141 1584 1827 1909 1940 1996 1902 1860 1699 1603 1414 1147 1002 848 534 419 288 134 3 0 0 0 0 0
0 0 0 0 0 17 27 337 138 47 20 153 625 729 746 644 759 919 854 909 1306 1808 2165 2119 2046 1975 1868 1744 1650 1491 838 577 543 442 422 320 151 10 0 0 0 0 0 0
0 0 0 17 1 61 318 407 128 72 29 25 196 158 278 328 665 1009 1242 1088 1289 1735 2072 2209 2068 1883 1756 1580 1462 811 397 45 222 281 244 108 26 0 0 0 0 0 0 0
0 0 0 0 4 16 152 150 197 114 58 23 16 0 70 630 1002 1090 1329 1394 1378 1736 2098 2247 2024 1802 1711 1485 987 714 602 417 344 117 55 0 6 0 0 0 0 0 0 0
0 0 0 37 12 2 12 116 224 85 122 91 63 18 30 188 809 1315 1540 1759 1631 1775 2059 1957 1843 1811 1432 1088 711 523 316 235 198 63 4 0 0 8 0 0 0 0 0 0
0 0 0 0 0 0 0 2 167 188 147 93 42 0 0 356 667 626 1480 1702 1964 1881 1781 1658 1334 1133 1241 881 447 401 402 308 84 17 0 0 0 0 0 0 0 0 0 0
0 0 0 0 0 0 0 0 3 103 97 34 141 209 458 720 643 1508 1715 1639 1695 1553 1471 969 589 28 15 205 388 500 400 133 75 3 0 0 0 0 0 0 0 0 0 0
0 0 0 0 0 0 0 0 0 51 49 18 5 54 1032 1164 1365 1415 1359 1279 1466 1295 1261 1077 193 0 0 108 100 425 402 99 0 0 0 0 0 0 0 0 0 0 0 0
0 0 0 0 0 0 0 0 6 0 0 0 0 0 773 1429 1259 1293 1219 1173 1082 1221 1130 1103 730 135 79 348 255 274 152 0 0 0 0 0 0 0 0 0 0 0 0 0
0 0 0 0 0 0 0 4 20 0 0 18 18 3 221 1128 1446 1430 1183 965 904 820 968 944 720 591 316 175 119 139 0 0 0 0 0 0 0 0 0 0 0 0 0 0
0 0 0 0 0 0 0 2 4 12 20 3 54 88 579 1032 1106 1031 942 801 677 605 715 659 439 116 84 63 74 18 0 0 0 0 0 0 0 0 0 0 0 0 0 0
0 0 0 0 0 25 76 2 0 0 0 9 839 945 1258 1197 967 745 601 565 379 279 415 469 299 94 62 65 15 0 0 0 0 0 0 0 0 0 0 0 0 0 0 0
0 0 3 0 2 87 41 51 47 189 454 775 1299 1478 1212 749 499 354 215 313 306 317 485 446 321 100 49 6 0 0 0 0 0 0 0 0 0 0 0 0 0 0 0 0
0 0 0 1 0 1 28 123 275 597 685 985 1166 525 122 49 64 49 134 223 252 264 294 355 299 184 43 0 0 0 0 0 0 0 0 0 0 0 0 0 0 0 0 0
0 0 0 1 1 44 169 205 531 814 860 711 468 214 67 105 113 126 128 124 134 201 70 76 192 120 46 3 0 0 0 0 0 0 0 0 0 0 0 0 0 0 0 0
0 4 32 38 329 509 604 575 507 553 784 762 412 175 213 248 246 139 53 48 17 35 1 2 1 1 1 1 0 0 0 0 0 0 0 0 0 0 0 0 0 0 0 0
40 70 209 641 685 836 875 763 630 555 549 617 376 273 251 206 144 16 16 12 0 1 1 0 0 0 0 0 0 0 0 0 0 0 0 0 0 0 0 0 0 0 0 0
16 31 213 695 872 903 856 805 522 484 324 264 235 221 122 137 7 0 0 5 0 0 0 0 0 0 0 0 0 0 0 0 0 0 0 0 0 0 0 0 0 0 0 0
24 0 0 193 785 764 795 1048 670 363 349 127 32 25 11 3 0 11 24 0 0 0 0 0 0 0 0 0 0 0 0 0 0 0 0 0 0 0 0 0 0 0 6 0
0 0 0 0 64 579 651 879 1236 619 204 53 178 49 3 0 0 0 0 0 0 0 0 0 0 0 0 0 0 0 0 0 0 0 0 0 0 0 0 0 0 0 0 0
0 0 0 0 101 410 617 796 1093 821 532 288 158 52 25 2 4 0 0 0 0 0 0 0 0 0 0 0 0 0 0 0 0 0 0 0 0 0 0 0 0 0 0 0
0 3 0 0 14 232 340 495 839 759 426 176 37 0 0 0 0 0 0 0 0 0 0 0 0 0 0 0 0 0 0 0 0 0 0 0 0 0 0 0 0 0 0 0
0 0 0 0 131 315 244 265 460 550 542 288 65 0 0 0 6 0 0 0 0 0 0 0 0 0 0 0 0 0 0 0 0 0 0 0 0 0 0 0 5 3 5 0